EHI
7 9 9 10 10 9 8 8 7 5 5 6 6 5 3 2 1 1 0 0 0 0 0 0 0 0 0 0 0 0 0 0 0 0 0 0 0 0
12 12 13 13 12 11 10 10 9 8 7 8 8 6 5 4 3 2 1 0 0 0 0 0 0 0 0 0 0 0 0 0 0 0 0 0 0 0
15 16 17 17 16 15 14 13 12 11 10 9 10 8 7 5 4 4 2 1 0 0 0 0 0 0 0 0 0 0 0 0 0 0 0 0 0 0
16 17 18 19 18 18 17 16 14 13 11 10 10 9 7 5 4 4 3 2 1 1 0 0 0 0 0 0 0 0 0 0 0 0 0 0 0 0
15 16 17 18 19 19 19 18 16 15 14 12 10 8 7 5 4 3 4 4 3 2 0 0 0 0 0 0 0 0 0 0 0 0 0 0 0 0
14 14 15 15 16 17 17 17 16 17 17 14 11 8 6 5 4 3 4 5 5 3 1 0 0 0 0 0 0 0 0 0 0 0 0 0 0 0
16 14 13 12 11 10 11 11 13 16 17 15 12 9 7 6 4 4 4 5 5 4 1 0 0 0 0 0 0 0 0 0 0 0 0 0 0 0
16 14 12 11 8 7 5 5 7 11 13 13 12 9 8 7 6 5 5 5 5 4 2 1 0 0 0 0 0 0 0 0 0 0 0 0 0 0
13 13 12 11 10 9 6 4 5 6 7 9 10 9 8 7 6 5 6 6 5 4 3 2 1 0 0 0 0 0 0 0 0 0 0 0 0 0
13 13 13 11 10 10 9 8 7 6 5 6 7 7 6 6 6 5 5 5 5 4 3 3 2 1 0 0 0 0 0 0 0 0 0 0 0 0
16 15 13 11 9 7 8 9 8 7 4 3 3 4 4 4 4 4 4 4 4 3 3 3 3 2 1 1 0 0 0 0 0 0 0 0 0 0
19 16 12 9 5 3 4 6 7 6 5 3 3 4 4 4 3 3 3 3 3 3 3 3 3 3 2 1 0 0 0 0 0 0 0 0 0 0
19 16 11 6 2 1 2 4 5 6 6 6 7 7 7 6 6 5 4 4 4 3 3 3 2 2 2 1 0 0 0 0 0 0 0 0 0 0
17 14 8 3 0 0 1 2 3 4 6 7 9 9 9 9 10 10 9 8 6 4 3 2 1 1 1 0 0 0 0 0 0 0 0 0 0 0
14 10 5 1 0 0 0 1 1 3 5 8 9 9 9 10 12 13 12 9 7 3 2 2 1 0 1 1 1 1 0 0 1 1 1 1 0 0
9 6 3 2 2 2 2 3 3 4 6 8 10 10 9 10 12 12 10 7 4 2 2 3 3 2 2 3 2 2 2 2 2 3 3 2 1 1
7 6 5 6 6 6 7 8 8 8 8 10 12 12 11 11 11 10 8 6 3 2 3 5 6 5 4 3 2 2 4 4 4 5 5 4 2 2
7 9 10 10 11 11 11 12 13 13 13 12 13 14 13 13 13 11 8 6 4 3 4 6 7 5 4 3 1 1 4 5 6 6 5 3 3 3
7 10 12 13 15 15 15 14 15 16 15 13 12 12 12 13 13 10 7 5 4 3 3 4 3 2 2 2 2 1 2 4 5 5 4 3 3 3
7 9 12 14 16 17 16 15 16 16 15 12 12 11 11 11 10 7 5 4 3 3 3 2 1 1 2 2 2 1 0 2 3 4 4 4 3 2
10 11 13 14 15 16 15 15 14 15 14 13 12 12 11 10 8 5 3 3 3 3 3 3 3 3 2 2 1 0 0 0 1 3 4 4 2 1
12 11 12 12 13 13 13 12 11 12 13 14 13 12 11 10 7 4 3 3 4 4 3 4 4 3 2 1 0 0 0 1 1 2 2 1 1 1
12 9 8 10 11 11 11 11 10 10 11 13 13 12 11 9 7 5 3 4 5 4 3 4 3 2 1 0 0 0 1 2 2 2 1 0 0 0
Wind_Speed
1 1 2 1 1 1 2 2 3 2 1 2 2 2 2 1 3 2 2 5 3 2 2 2 2 2 2 2 2 2 2 3 3 4 4 4 4 5
1 1 2 2 1 1 2 2 3 3 2 0 1 2 1 2 4 2 2 7 4 3 3 2 2 2 2 2 3 3 3 3 4 4 4 4 4 4
2 1 2 2 2 2 2 2 2 2 2 1 1 2 2 3 2 3 3 3 4 6 4 3 3 3 2 2 2 2 3 3 3 4 4 4 4 4
2 2 2 2 2 3 2 2 2 2 3 2 1 2 3 3 3 4 3 3 2 8 7 6 5 4 4 3 3 3 3 3 4 4 4 4 4 4
3 3 2 2 3 2 3 2 2 3 3 3 2 2 2 3 3 4 3 3 4 6 9 8 7 6 5 5 5 4 4 4 4 4 4 4 4 4
3 3 3 3 3 3 3 3 3 3 3 4 3 3 3 3 3 3 4 4 4 3 4 5 8 9 8 8 7 6 6 5 5 5 5 5 5 4
3 3 3 2 2 3 3 3 3 4 4 4 4 3 3 3 4 4 3 3 3 3 3 4 6 6 7 9 9 8 7 7 7 7 6 6 6 6
4 4 4 4 5 5 5 4 4 5 5 4 4 4 3 4 3 4 4 4 3 3 4 4 4 5 5 5 8 10 10 9 9 8 8 8 8 7
4 4 4 3 5 5 6 8 7 7 6 7 6 5 5 4 4 6 5 5 5 3 4 5 4 5 4 4 9 11 11 11 10 10 10 9 9 9
5 5 5 5 4 5 6 6 6 7 7 7 7 7 6 4 5 6 6 6 5 4 4 5 5 5 5 4 9 12 12 12 12 12 11 11 10 10
5 5 6 6 3 4 7 6 6 5 6 7 6 6 5 5 5 5 5 5 5 4 4 5 5 5 5 5 6 12 12 12 12 13 13 13 12 11
5 5 5 5 4 5 7 6 7 6 6 6 7 8 8 7 8 7 6 6 5 4 3 5 5 4 4 4 4 6 8 10 12 13 14 14 13 10
5 5 4 5 5 6 8 7 6 7 8 7 6 6 6 5 6 6 6 7 6 5 3 4 5 5 5 4 4 4 5 5 7 9 13 14 14 12
5 4 2 5 6 7 7 6 7 8 7 6 6 5 5 5 4 5 6 6 6 7 5 5 5 5 6 6 4 4 5 5 5 6 6 10 13 14
4 1 1 5 7 8 9 9 8 7 7 6 6 6 5 5 4 4 5 6 7 7 6 7 7 6 6 6 6 4 4 4 5 5 5 6 7 8
6 4 6 8 8 7 6 8 8 7 7 7 6 6 5 5 5 4 5 5 5 5 6 7 7 7 7 7 6 5 5 4 4 5 5 5 6 7
4 5 5 5 6 6 6 6 6 6 7 7 6 6 5 5 5 4 4 4 5 5 5 5 6 7 7 7 6 6 5 5 4 4 5 6 6 6
5 6 5 6 6 6 6 6 6 6 6 6 6 6 6 6 5 5 5 5 5 5 5 4 4 5 5 5 6 7 6 5 4 4 5 5 5 5
6 7 6 6 6 6 6 6 6 5 5 6 6 6 6 6 6 5 5 5 6 6 5 4 4 5 7 7 5 7 7 5 5 4 5 5 5 4
7 6 6 6 6 6 6 6 5 5 5 6 6 6 6 6 6 6 6 6 6 6 6 5 5 5 7 7 5 4 8 7 5 5 4 4 4 3
6 6 6 5 5 5 5 5 6 5 5 6 5 6 6 6 6 6 6 6 7 6 7 6 5 6 6 5 6 5 4 7 5 4 4 4 4 4
6 6 6 5 5 5 5 6 6 6 5 5 5 5 5 6 7 7 6 6 6 6 7 6 5 5 6 6 7 5 4 3 5 4 4 4 4 4
5 5 5 5 5 5 5 6 7 6 6 5 5 5 5 6 6 6 6 6 6 6 7 6 5 5 6 6 6 5 5 4 3 3 3 4 4 3
Wind_Direction
254 220 266 285 270 273 253 264 277 277 202 151 185 158 189 145 135 190 142 117 123 115 104 95 96 106 108 111 122 130 135 137 136 138 145 151 154 162
292 326 296 288 286 266 270 268 275 286 296 106 185 154 169 182 153 199 161 145 155 148 140 129 122 122 120 117 118 118 122 130 138 140 141 145 147 152
247 232 255 297 291 270 246 245 256 266 262 258 173 129 184 239 172 209 205 209 160 158 162 163 160 159 157 152 144 142 141 146 151 153 156 155 153 159
242 247 253 241 249 271 265 260 255 253 257 255 220 175 196 218 215 230 223 215 201 153 171 182 186 182 180 184 184 176 172 172 169 166 169 171 171 171
239 244 253 257 254 254 257 257 249 231 237 241 226 199 211 204 214 226 232 238 239 170 179 190 194 193 194 196 199 198 197 192 187 183 182 182 180 178
241 243 248 249 251 256 243 243 253 254 239 246 234 214 210 198 228 231 219 209 235 218 193 191 186 194 200 202 204 204 203 200 197 194 191 191 189 187
228 231 232 243 284 275 279 256 243 251 246 240 237 231 222 211 232 239 245 230 219 235 224 209 198 203 196 201 206 206 203 201 201 201 198 197 196 197
230 234 224 214 221 220 246 265 273 258 264 262 253 253 248 243 248 255 254 250 244 211 235 236 225 223 212 204 180 189 201 204 205 205 203 201 203 202
231 239 251 225 223 233 215 218 230 242 258 268 273 272 264 254 253 249 248 257 266 246 237 249 237 239 233 198 173 187 199 206 208 207 207 206 206 207
230 231 239 244 239 255 248 238 234 224 228 241 261 267 270 266 251 253 258 248 250 245 235 255 248 244 240 216 182 192 201 206 208 208 208 207 207 210
231 233 241 240 220 248 250 251 250 241 217 227 250 258 267 253 256 259 249 248 250 239 216 245 254 254 245 233 195 191 202 207 209 209 209 208 208 209
220 220 219 244 217 228 245 250 253 256 255 230 226 233 237 226 219 242 253 253 258 252 214 235 251 253 250 236 221 199 207 207 210 211 210 209 205 217
236 227 202 188 211 226 248 255 259 265 258 251 242 235 232 230 224 226 241 254 257 257 234 218 247 249 253 256 243 229 223 216 209 213 212 211 206 216
250 247 195 179 211 228 239 252 256 258 257 255 252 247 243 239 233 232 230 240 251 262 267 249 249 250 257 261 254 240 235 229 224 223 219 200 208 217
254 283 229 207 225 228 229 236 241 245 254 255 254 252 250 247 245 231 227 228 236 245 246 242 248 251 253 259 263 253 245 237 232 227 223 216 212 209
238 217 209 219 236 252 233 226 236 245 252 254 255 255 253 243 237 239 237 231 240 240 229 230 240 250 255 260 263 261 251 243 234 231 230 229 222 220
232 236 237 230 233 235 237 237 239 237 239 248 252 253 249 244 241 238 241 247 247 253 247 228 227 230 241 259 259 254 251 246 236 226 229 235 230 226
227 239 240 243 246 247 246 243 237 237 241 245 248 250 250 247 244 241 239 243 248 249 251 248 238 236 240 237 245 261 259 253 243 226 232 239 238 234
229 243 243 245 249 251 252 254 254 247 244 245 248 249 250 250 249 246 241 241 248 252 254 252 243 240 249 256 233 220 250 254 246 234 232 239 246 239
241 252 254 253 256 258 259 259 259 257 249 249 248 249 249 250 250 249 244 245 250 254 256 251 244 244 251 263 267 241 221 240 245 243 241 244 249 231
246 251 256 259 260 261 264 263 263 259 258 259 257 254 251 251 253 254 253 246 247 250 253 254 251 239 251 258 258 252 230 211 236 248 250 247 245 234
253 257 259 257 259 261 259 261 262 260 257 253 257 261 260 257 254 254 256 253 250 255 259 259 244 235 242 247 254 254 247 220 207 231 259 262 253 244
263 264 266 262 259 262 261 256 258 262 261 260 258 257 259 261 262 260 260 259 260 261 263 264 256 243 243 247 255 260 255 237 226 215 226 216 217 227